Please be sure to check the latest weather conditions by clicking the link and viewing our local weather information!

Check Weather

Welcome to Lakeway Airpark (3R9)


We’re a community airpark nestled within the town of Lakeway, Texas (17 miles northwest of downtown Austin).

Lakeway Airpark, Inc. was formed by Lakeway residents and interested parties to own and manage Lakeway Airpark (3R9).

The Airpark is a privately owned not for profit public use airport for residents and guests of Lakeway. No public funds are used and the airport is supported by fees and fuel sales at the airport.

Lakeway Airpark is an unmanned facility open for use from Sunrise to Sunset seven days a week. Takeoffs and landings are not permitted at night, between Sunset and Sunrise, by City Ordinance.

Quick Weather Info

Available data for KAUS from the past 2 hours


  • KAUS 262153Z 20005KT 10SM SCT065 29/14 A3006 RMK AO2 SLP172 T02940144
  • KAUS 262053Z VRB03KT 10SM SCT060 30/15 A3007 RMK AO2 SLP174 T03000150 56026


  • KAUS 261734Z 2618/2724 18010KT P6SM BKN030 FM261830 18010KT P6SM SCT035 FM270100 16005KT P6SM SKC FM271100 VRB03KT P6SM BKN015 FM271600 19003KT P6SM SCT025 BKN040 FM272000 19006KT P6SM SCT050